Current Version              Previous Version:    01  02  03  04  05  06  07  08  09  10  11  12  13  14  15  16  17  18  19  20  21  22  23  24  25  26  27  28  29  30  
   31  32  33  34  35  36  37  38  39  40  41  42  43  44  45  46  47  48  49  50  51  52  53  54  55  56  57  58  59  60  

[Printable]
409
ASUS44 KEWX 220410
RWRTX
SOUTH TEXAS REGIONAL WEATHER ROUNDUP
NATIONAL WEATHER SERVICE AUSTIN/SAN ANTONIO TX
1100 PM CDT THU AUG 21 2014

NOTE: "FAIR" INDICATED FEW OR NO CLOUDS BELOW 12,000 FEET WITH NO
SIGNIFICANT WEATHER AND/OR OBSTRUCTIONS TO VISIBILITY.

* - THESE STATIONS ARE NOT NWS OR FAA STATIONS...AND ARE NOT SUBJECT
    TO NWS AND FAA QUALITY CONTROL.

TXZ171-172-183>190-220500-
TEXAS HILL COUNTRY AND EDWARDS PLATEAU

CITY           SKY/WX    TMP DP  RH WIND       PRES   REMARKS
JUNCTION       CLEAR     84  60  44 S6        30.02R
*LLANO         CLEAR     90  70  51 S8G18     30.04R HX  95
BURNET         CLEAR     86  69  56 SE10G16   30.06R HX  90
*HORSESHOE BAY CLEAR     86  69  56 S12       30.03R HX  90
*KERRVILLE     CLEAR     83  73  73 SE17G25   30.06R
*FREDERICKSBRG CLEAR     84  70  63 S15G25    30.06R
*ROCKSPRINGS   CLEAR     82  59  44 SE9G17    30.07S
*BOERNE STAGE  CLEAR     82  70  65 S9G17     30.08R
*CASTROVILLE   CLEAR     85  71  63 SE14G25   30.04R HX  90
HONDO          CLEAR     85  73  67 SE16G29   30.04R HX  91
*UVALDE        CLEAR     88  73  61 SE17G23   30.00R HX  96
DEL RIO        CLEAR     92  57  30 SE14G22   29.93R HX  90
LAUGHLIN AFB   CLEAR     89  58  35 SE10      29.95R
CARRIZO SPRGS  CLEAR     91  66  43 SE17G24   29.95R HX  94
$$

TXZ173-191>194-202-209-217>225-228-220500-
CENTRAL AND SOUTH CENTRAL TEXAS

CITY           SKY/WX    TMP DP  RH WIND       PRES   REMARKS
GEORGETOWN     CLEAR     86  72  62 S17G23    30.04R HX  92
AUSTIN/BERGSTM CLEAR     85  74  69 S15G22    30.03R HX  92
AUSTIN/MABRY   CLEAR     85  73  67 S13G25    30.05R HX  91
*AUSTIN/EXEC     N/A     84  72  65 S12G21    30.04R
*LAGO VISTA    CLEAR     85  70  60 SE8G26    30.06R HX  90
SAN MARCOS     CLEAR     84  70  61 S15       30.05R
NEW BRAUNFELS  CLEAR     84  72  67 S18G29    30.03R
RANDOLPH AFB   CLEAR     83  73  70 SE16G23   30.05R
PT SAN ANTONIO CLEAR     84  73  68 SE20      30.02R HX  91
SAN ANTONIO    CLEAR     86  73  65 SE15G28   30.04R HX  93
STINSON FIELD  CLEAR     85  72  65 SE16G28   30.02R HX  91
*PLEASANTON    CLEAR     84  73  68 SE12G18   30.03R HX  90
*LA GRANGE     MOCLDY    85  77  79 S8        30.04R HX  95
*GIDDINGS      PTCLDY    83  73  72 S8G21     30.09S
*GONZALES      PTCLDY    84  76  78 S16G24    30.03S HX  93
$$

TXZ163>164-176>182-195>201-210>213-226-227-235-220500-
SOUTHEAST TEXAS

CITY           SKY/WX    TMP DP  RH WIND       PRES   REMARKS
COLLEGE STN    CLEAR     84  73  69 S15       30.05R HX  90
*BRYAN         CLEAR     83  73  72 S10G17    30.05R
*CALDWELL      CLEAR     82  72  69 SE13      30.07S
*CROCKETT      CLEAR     84  77  79 S8        30.08S HX  94
*BRENHAM       CLEAR     84  74  73 S9G17     30.06S HX  91
HUNTSVILLE     CLEAR     83  73  72 S6        30.06S
CONROE         CLEAR     79  74  84 SE6       30.08S
HOUSTON BUSH   PTCLDY    83  76  79 S7        30.07S HX  91
HOUSTON HOBBY  PTCLDY    81  75  82 S6        30.07S
*HOUSTON SW AP CLEAR     77  77 100 MISG      30.09S
PEARLAND       CLEAR     82  75  79 SE5       30.09S
HOUSTON HOOKS  CLEAR     82  75  79 S3        30.07S
ELLINGTON FLD  PTCLDY    82  73  74 S5        30.09S
SUGAR LAND     CLEAR     81  76  84 S10       30.07R
*HOUSTON EXEC  CLEAR     81  77  89 SE8       30.08S
*CLEVELAND MUN CLEAR     79  76  91 CALM      30.09R
*WHARTON       CLEAR     80  76  87 SE7       30.08S
$$

TXZ214>216-236>238-220500-
THE UPPER TEXAS COAST

CITY           SKY/WX    TMP DP  RH WIND       PRES   REMARKS
*ORANGE        MOCLDY    83  74  76 S5        30.10S
PORT ARTHUR    MOCLDY    78  75  90 S5        30.08F
GALVESTON      PTCLDY    85  76  74 S14       30.09S HX  94
ANGLETON       CLEAR     82  76  81 S9        30.08R
*BAY CITY      CLEAR     83  77  83 SE6       30.07S HX  91
PALACIOS       CLEAR     84  77  79 SE13      30.06  HX  94
$$

TXZ229>234-239>247-220500-
TEXAS COASTAL BEND AND RIO GRANDE PLAINS

CITY           SKY/WX    TMP DP  RH WIND       PRES   REMARKS
VICTORIA       CLEAR     84  78  82 SE14      30.05S HX  95
*BEEVILLE      PTCLDY    83  77  82 SE15      30.04R HX  92
ROCKPORT       CLEAR     85  78  80 SE15G21   30.04R HX  96
*PORT ARANSAS  CLEAR     82  79  90 SE9       30.04S HX  92
*PORT LAVACA   CLEAR     82  77  84 SE12      30.06R HX  91
*INGLESIDE     CLEAR     85  78  79 SE13      30.04S HX  96
CORPUS CHRISTI PTCLDY    84  78  82 SE17      30.04R HX  95
CORPUS NAS     PTCLDY    84  80  88 SE16      30.04R HX  97
*ROBSTOWN      NOT AVBL
ALICE          CLEAR     83  78  85 SE16G25   30.03R HX  93
KINGSVILLE NAS PTCLDY    84  80  88 SE14      30.03R HX  97
COTULLA        CLEAR     89  73  59 SE17G30   29.99R HX  97
*FAITH RANCH   CLEAR     93  64  38 SE17G26   29.95R HX  95
LAREDO         CLEAR     90  70  51 SE22      30.01R HX  95
$$

TXZ248>255-220500-
DEEP SOUTH TEXAS

CITY           SKY/WX    TMP DP  RH WIND       PRES   REMARKS
BROWNSVILLE    CLEAR     82  78  88 SE6       30.05R HX  91
PORT ISABEL    CLEAR     84  79  85 SE9       30.05R HX  96
*SOUTH PADRE     N/A     81  79  94 SE8       30.06R
HARLINGEN      MOCLDY    83  78  85 SE9       30.04R HX  93
*HEBBRONVILLE  CLEAR     86  69  57 SE12      30.04R HX  90
MCALLEN        CLEAR     84  74  71 SE16      30.04R HX  91
*WESLACO       CLEAR     83  74  72 SE8G16    30.04R HX  90
FALFURRIAS     CLEAR     89  72  57 SE14      30.03R HX  96
EDINBURG       CLEAR     85  74  68 SE9       30.04R HX  92
*ZAPATA        CLEAR     87  67  51 SE14G22   29.99R HX  90
$$

TXZ213>215-236>238-242>244-246-247-251-254-255-220500-
CMAN STATIONS

STATION/POSITION TIME  TEMP    WIND        PRES    WAVE
                       AIR SEA DIR/SP/G            HT/PER
                 (UTC) (F)     (DEG/KT/KT) (MB)    (FT/S)
SABINE PASS      0400   84 88  200/  6/  9 1018.8
SEA RIM ST PARK  0400   85     190/ 10/ 11 1019.2
NORTH JETTY/GLS  0400   85 88  200/ 15/ 17   N/A
EAGLE POINT      0400   85 88  190/ 15/ 16 1018.6
MORGANS POINT    0400   85     180/  8/ 11 1018.5
MISSION/ARANSAS  0300   83     140/ 18     1018.0
PORT O`CONNOR    0400          140/ 16/ 19   N/A
PORT ARANSAS     0400   83 85  130/ 12/ 14 1018.0
MALAQUITE BEACH  0400   81 82  130/ 13/ 15 1016.7
BAFFIN BAY       0400   83 83  140/ 13/ 16 1017.3
PORT ISABEL      0400   82 81  120/  6/  9 1018.0
$$

GMZ080-GMZ150>470-220500-
OFFSHORE BUOY REPORTS

STATION/POSITION TIME  TEMP    WIND        PRES    WAVE
                       AIR SEA DIR/SP/G            HT/PER
                 (UTC) (F)     (DEG/KT/KT) (MB)    (FT/S)
90 E PT ARANSAS  0400   85 85  130/ 12/ 14 1018.8    3/ 6
35 NE PT MANSFLD 0400   85 84  140/ 16/ 19 1017.2    4/ 6
200 E PT ISABEL  0400   85 86  100/ 10/ 12 1019.2    3/ 7
$$



500
ASUS44 KFWD 220410
RWRTX
NORTH TEXAS HOURLY WEATHER ROUNDUP
NATIONAL WEATHER SERVICE FORT WORTH TX
1100 PM CDT THU AUG 21 2014

NOTE: "FAIR" INDICATES FEW OR NO CLOUDS BELOW 12,000 FEET WITH NO
SIGNIFICANT WEATHER AND/OR OBSTRUCTIONS TO VISIBILITY.

TXZ118-119-220500-
DALLAS/FORT WORTH METROPLEX

CITY           SKY/WX    TMP DP  RH WIND       PRES   REMARKS
DFW AIRPORT    CLEAR     90  65  43 S15G25    29.96S HX  92
DALLAS LOVE    CLEAR     90  66  45 S20G25    29.97S HX  92
FTW MEACHAM    CLEAR     90  63  40 SE15      29.96R HX  91
DAL-EXECUTIVE  CLEAR     90  65  43 S13G23    29.98S HX  92
FTW-ALLIANCE   CLEAR     88  62  41 S12       29.96R
FTW-NAS-JRB    CLEAR     93  59  31 SE15      30.00R HX  92
FTW-SPINKS     CLEAR     85  63  47 SE8       29.98S
ARLINGTON      CLEAR     88  65  46 SE12      29.97S HX  90
GRAND PRAIRIE  CLEAR     89  64  42 SE13G18   29.99R HX  90
ADDISON        CLEAR     90  64  41 S15G25    29.99S HX  91
MESQUITE       PTCLDY    86  65  49 SE8       29.99R
LANCASTER      CLEAR     87  64  46 S10       29.99S
$$

TXZ091>094-102>105-117-120-121-131>134-220500-
NORTH CENTRAL TEXAS

CITY           SKY/WX    TMP DP  RH WIND       PRES   REMARKS
SHRMAN/DENISON CLEAR     87  66  49 SE16      29.99S
GAINESVILLE    CLEAR     81  65  57 SE8       29.99S
BOWIE          CLEAR     82  62  50 SE5       29.97S
BRIDGEPORT     CLEAR     87  55  32 SE8       29.98R
DECATUR        CLEAR     86  59  39 SE8       29.98S
DENTON         CLEAR     89  64  43 S15       29.96R HX  90
MCKINNEY       CLEAR     85  68  56 SE7       29.99R
GREENVILLE     CLEAR     84  66  54 SE13      30.00S
ROCKWALL       CLEAR     86  68  55 SE9       29.98R
TERRELL        CLEAR     87  66  49 SE12      30.00R
WAXAHACHIE     CLEAR     85  64  48 SE9       30.00S
CLEBURNE       CLEAR     86  64  48 SE10      30.00R
GRANBURY       CLEAR     89  58  35 SE8       29.98R
$$

TXZ083>090-098>101-113>116-127>130-139>142-154-155-220500-
WESTERN NORTH TEXAS

CITY           SKY/WX    TMP DP  RH WIND       PRES   REMARKS
WICHITA FALLS  CLEAR     87  60  40 S10       29.93R
WF-KICKAPOO    CLEAR     85  57  38 S6        29.95S
VERNON         CLEAR     92  58  31 S13       29.93S HX  91
ABILENE        CLEAR     87  63  44 S12       30.01R
ABILENE-DYESS  CLEAR     86  65  49 S14       30.00R
BRECKENRIDGE   CLEAR     89  56  32 S8        29.97R
GRAHAM         CLEAR     89  57  33 S6        29.95R
MINERAL WELLS  CLEAR     86  59  39 S7        29.95R
STEPHENVILLE   CLEAR     85  57  37 S5        30.02S
COMANCHE       CLEAR     86  58  38 S7        30.00S
BROWNWOOD      PTCLDY    84  59  42 SE6       30.00S
COLEMAN        CLEAR     79  65  61 S5        30.01S
BRADY          CLEAR     82  61  47 SE7       30.02S
$$

TXZ143>147-156>162-174-175-220500-
CENTRAL TEXAS

CITY           SKY/WX    TMP DP  RH WIND       PRES   REMARKS
WACO           CLEAR     88  67  49 S17       30.00R HX  91
WACO-TSTC      CLEAR     90  66  45 S20       30.00R HX  92
WACO-MCGREGOR  CLEAR     88  63  42 S16       30.01R
HILLSBORO      CLEAR     88  64  44 SE15G23   29.99S
CORSICANA      CLEAR     87  67  51 S12       30.02R HX  90
MEXIA          CLEAR     85  69  57 S10       30.02R
HEARNE           N/A     84  72  66 SE10      30.04R HX  90
CAMERON        CLEAR     86  73  64 S17G24    30.03R HX  92
TEMPLE         CLEAR     88  64  45 SE22G28   30.01R
KILLEEN        CLEAR     88  70  55 SE24G30   30.01R HX  92
KILLEEN-SKYLRK CLEAR     88  66  48 SE15G29   30.02R HX  90
FORT HOOD      CLEAR     88  68  51 SE15G23   30.01R HX  91
GATESVILLE     CLEAR     88  64  45 S12       30.02S
HAMILTON       CLEAR     87  60  40 SE16G22   30.02R
LAMPASAS       CLEAR     88  72  57 S20G25    30.01S HX  94
$$

TXZ095>097-106>112-122>126-135>138-148>153-164>167-220500-
EAST TEXAS

CITY           SKY/WX    TMP DP  RH WIND       PRES   REMARKS
PARIS          CLEAR     82  66  57 S9        30.02S
SULPHUR SPRNGS CLEAR     86  69  56 S12       30.03S HX  90
CLARKSVILLE    PTCLDY    82  69  64 SE6       30.02S
MOUNT PLEASANT CLEAR     81  69  67 SE6       30.04S
GILMER         PTCLDY    84  72  65 S7        30.05S
MINEOLA        CLEAR     86  72  62 S7        30.02F HX  92
TYLER          CLEAR     85  72  65 S13       30.03S HX  91
LONGVIEW       PTCLDY    84  70  62 S10       30.04R
MARSHALL       MOCLDY    82  76  81 S5        30.06S HX  90
ATHENS         CLEAR     82  72  69 S8        30.02S
PALESTINE      CLEAR     84  74  72 SE7       30.05R HX  92
JACKSONVILLE   CLEAR     83  73  71 S10G18    30.08S
HENDERSON      PTCLDY    83  71  68 S8        30.07R
NACOGDOCHES    PTCLDY    81  73  78 S8        30.07S
LUFKIN         PTCLDY    83  74  74 S6        30.07R
$$

SUPPLEMENTAL OBSERVATIONS (CENTRAL)

CITY           SKY/WX    TMP DP  RH WIND       PRES   REMARKS
PAT MAYSE LAKE   N/A     84  68  58 SE13        N/A
GREENVILLE       N/A     84  70  61 S6          N/A
CEDAR HILL       N/A     88  66  48 SE9         N/A  HX  90
PALESTINE        N/A     84  73  70 S9          N/A  HX  91
MCGREGOR         N/A     88  66  48 S20         N/A  HX  90
TEMPLE           N/A     86  70  58 S15G23      N/A  HX  90
$$

SUPPLEMENTAL OBSERVATIONS (WEST)

CITY           SKY/WX    TMP DP  RH WIND       PRES   REMARKS
MILLERS CREEK    N/A     90  57  33 S10         N/A
POSSUM KINGDOM   N/A     88  57  35 S3          N/A
GRANBURY         N/A     88  57  35 SE9         N/A
HAMBY            N/A     84  61  45 S7          N/A
IVIE RESERVOIR   N/A     82  63  51 E5          N/A
COLORADO BEND    N/A     86  66  51 S13G21      N/A
$$

SUPPLEMENTAL OBSERVATIONS (EAST)

CITY           SKY/WX    TMP DP  RH WIND       PRES   REMARKS
CLARKSVILLE      N/A     82  70  65 S6          N/A
TEXARKANA        N/A     77  73  88 CALM        N/A
GILMER           N/A     84  70  61 S6          N/A
HENDERSON        N/A     82  72  69 S9          N/A
LUFKIN           N/A     81  75  83 MISG        N/A
N SABINE NF      N/A     79  75  89 MISG        N/A
S SABINE NF      N/A     79  73  83 CALM        N/A
$$

SUPPLEMENTAL OBSERVATIONS ARE A COLLECTION OF AUTOMATED INSTRUMENTS
THAT ARE MAINTAINED BY A VARIETY OF FEDERAL AND STATE AGENCIES.
CERTAIN ELEMENTS...SUCH AS HUMIDITY VALUES AND SUSTAINED WIND
SPEEDS...MAY BE APPROXIMATED.